Time,TemperatureF,DewpointF,PressureIn,WindDirection,WindDirectionDegrees,WindSpeedMPH,WindSpeedGustMPH,Humidity,HourlyPrecipIn,Conditions,Clouds,dailyrainin,SoftwareType,DateUTC
2013-01-15 00:03:00,27.0,21.0,30.34,WNW,296,2.0,3.0,79,0.00,,,0.01,,2013-01-15 05:03:00,
2013-01-15 00:12:00,27.0,21.0,30.34,NNW,327,1.0,3.0,79,0.00,,,0.01,,2013-01-15 05:12:00,
2013-01-15 00:22:00,27.0,21.0,30.34,NNW,327,1.0,3.0,79,0.00,,,0.01,,2013-01-15 05:22:00,
2013-01-15 00:33:00,27.0,21.0,30.35,WNW,286,1.0,3.0,78,0.00,,,0.00,,2013-01-15 05:33:00,
2013-01-15 00:42:00,27.0,21.0,30.35,WNW,286,1.0,3.0,78,0.00,,,0.00,,2013-01-15 05:42:00,
2013-01-15 00:53:00,27.0,21.0,30.33,NW,326,0.0,5.0,77,0.00,,,0.00,,2013-01-15 05:53:00,
2013-01-15 01:02:00,27.0,21.0,30.33,WNW,283,1.0,3.0,78,0.00,,,0.00,,2013-01-15 06:02:00,
2013-01-15 01:12:00,27.0,21.0,30.33,WNW,283,1.0,3.0,78,0.00,,,0.00,,2013-01-15 06:12:00,
2013-01-15 01:22:00,27.0,21.0,30.33,WSW,253,1.0,4.0,77,0.00,,,0.00,,2013-01-15 06:22:00,
2013-01-15 01:33:00,27.0,21.0,30.34,NW,314,2.0,3.0,77,0.00,,,0.00,,2013-01-15 06:33:00,
2013-01-15 01:43:00,27.0,21.0,30.34,NW,314,2.0,3.0,77,0.00,,,0.00,,2013-01-15 06:43:00,
2013-01-15 01:53:00,27.0,21.0,30.34,NNW,344,2.0,4.0,77,0.00,,,0.00,,2013-01-15 06:53:00,
2013-01-15 02:02:00,27.0,21.0,30.34,NW,321,1.0,3.0,77,0.00,,,0.00,,2013-01-15 07:02:00,
2013-01-15 02:12:00,27.0,21.0,30.34,NW,321,1.0,3.0,77,0.00,,,0.00,,2013-01-15 07:12:00,
2013-01-15 02:22:00,27.0,21.0,30.35,WNW,295,1.0,3.0,78,0.00,,,0.00,,2013-01-15 07:22:00,
2013-01-15 02:33:00,27.0,21.0,30.35,WNW,290,2.0,3.0,77,0.00,,,0.00,,2013-01-15 07:33:00,
2013-01-15 02:42:00,27.0,21.0,30.35,WNW,290,2.0,3.0,77,0.00,,,0.00,,2013-01-15 07:42:00,
2013-01-15 02:53:00,27.0,21.0,30.35,WSW,253,2.0,3.0,77,0.00,,,0.00,,2013-01-15 07:53:00,
2013-01-15 03:02:00,27.0,21.0,30.35,WSW,245,0.0,2.0,78,0.00,,,0.00,,2013-01-15 08:02:00,
2013-01-15 03:12:00,27.0,21.0,30.35,WSW,245,0.0,2.0,78,0.00,,,0.00,,2013-01-15 08:12:00,
2013-01-15 03:22:00,27.0,21.0,30.35,WSW,250,1.0,3.0,78,0.00,,,0.00,,2013-01-15 08:22:00,
2013-01-15 03:33:00,27.0,21.0,30.35,WNW,282,2.0,3.0,79,0.00,,,0.00,,2013-01-15 08:33:00,
2013-01-15 03:42:00,27.0,21.0,30.35,WNW,282,2.0,3.0,79,0.00,,,0.00,,2013-01-15 08:42:00,
2013-01-15 03:53:00,27.0,21.0,30.35,WSW,249,1.0,3.0,79,0.00,,,0.00,,2013-01-15 08:53:00,
2013-01-15 04:02:00,27.0,21.0,30.35,NW,304,0.0,3.0,79,0.00,,,0.00,,2013-01-15 09:02:00,
2013-01-15 04:12:00,27.0,21.0,30.35,NW,304,0.0,3.0,79,0.00,,,0.00,,2013-01-15 09:12:00,
2013-01-15 04:22:00,27.0,21.0,30.35,NNW,342,3.0,7.0,79,0.00,,,0.00,,2013-01-15 09:22:00,
2013-01-15 04:33:00,27.0,21.0,30.34,NW,311,3.0,6.0,79,0.00,,,0.00,,2013-01-15 09:33:00,
2013-01-15 04:42:00,27.0,21.0,30.34,NW,311,3.0,6.0,79,0.00,,,0.00,,2013-01-15 09:42:00,
2013-01-15 04:52:00,27.0,21.0,30.34,North,5,4.0,8.0,78,0.00,,,0.00,,2013-01-15 09:52:00,
2013-01-15 05:02:00,27.0,21.0,30.34,NNW,334,1.0,5.0,79,0.00,,,0.00,,2013-01-15 10:02:00,
2013-01-15 05:12:00,27.0,21.0,30.34,NNW,334,1.0,5.0,79,0.00,,,0.00,,2013-01-15 10:12:00,
2013-01-15 05:22:00,27.0,22.0,30.34,NNW,348,2.0,6.0,80,0.00,,,0.00,,2013-01-15 10:22:00,
2013-01-15 05:32:00,27.0,21.0,30.34,West,269,3.0,4.0,79,0.00,,,0.00,,2013-01-15 10:32:00,
2013-01-15 05:42:00,27.0,21.0,30.34,West,269,3.0,4.0,79,0.00,,,0.00,,2013-01-15 10:42:00,
2013-01-15 05:52:00,27.0,21.0,30.34,NW,317,3.0,5.0,78,0.00,,,0.00,,2013-01-15 10:52:00,
2013-01-15 06:03:00,27.0,21.0,30.35,NNW,338,3.0,5.0,78,0.00,,,0.00,,2013-01-15 11:03:00,
2013-01-15 06:12:00,27.0,21.0,30.35,NNW,338,3.0,5.0,78,0.00,,,0.00,,2013-01-15 11:12:00,
2013-01-15 06:22:00,27.0,21.0,30.35,NW,321,2.0,6.0,78,0.00,,,0.00,,2013-01-15 11:22:00,
2013-01-15 06:33:00,27.0,21.0,30.35,East,80,1.0,5.0,77,0.00,,,0.00,,2013-01-15 11:33:00,
2013-01-15 06:42:00,27.0,21.0,30.35,East,80,1.0,5.0,77,0.00,,,0.00,,2013-01-15 11:42:00,
2013-01-15 06:53:00,27.0,20.0,30.37,West,268,3.0,6.0,76,0.00,,,0.00,,2013-01-15 11:53:00,
2013-01-15 07:03:00,27.0,20.0,30.37,NNE,28,3.0,3.0,76,0.00,,,0.00,,2013-01-15 12:03:00,
2013-01-15 07:12:00,27.0,20.0,30.37,NNE,28,3.0,3.0,76,0.00,,,0.00,,2013-01-15 12:12:00,
2013-01-15 07:22:00,27.0,20.0,30.37,NW,307,2.0,5.0,76,0.00,,,0.00,,2013-01-15 12:22:00,
2013-01-15 07:33:00,27.0,20.0,30.38,NE,40,4.0,5.0,76,0.00,,,0.00,,2013-01-15 12:33:00,
2013-01-15 07:43:00,27.0,20.0,30.38,NE,40,4.0,5.0,76,0.00,,,0.00,,2013-01-15 12:43:00,
2013-01-15 07:53:00,26.0,19.0,30.38,WNW,301,1.0,5.0,76,0.00,,,0.00,,2013-01-15 12:53:00,
2013-01-15 08:03:00,26.0,19.0,30.39,NW,309,1.0,3.0,76,0.00,,,0.00,,2013-01-15 13:03:00,
2013-01-15 08:12:00,26.0,19.0,30.39,NW,309,1.0,3.0,76,0.00,,,0.00,,2013-01-15 13:12:00,
2013-01-15 08:23:00,26.0,19.0,30.40,NNE,32,4.0,7.0,75,0.00,,,0.00,,2013-01-15 13:23:00,
2013-01-15 08:33:00,26.0,19.0,30.40,NW,304,3.0,6.0,75,0.00,,,0.00,,2013-01-15 13:33:00,
2013-01-15 08:43:00,26.0,19.0,30.40,NW,304,3.0,6.0,75,0.00,,,0.00,,2013-01-15 13:43:00,
2013-01-15 08:53:00,26.0,19.0,30.41,NW,317,3.0,7.0,76,0.00,,,0.00,,2013-01-15 13:53:00,
2013-01-15 09:03:00,26.0,19.0,30.40,ENE,67,2.0,3.0,76,0.00,,,0.00,,2013-01-15 14:03:00,
2013-01-15 09:12:00,26.0,19.0,30.40,ENE,67,2.0,3.0,76,0.00,,,0.00,,2013-01-15 14:12:00,
2013-01-15 09:23:00,26.0,19.0,30.39,NE,56,3.0,6.0,76,0.00,,,0.00,,2013-01-15 14:23:00,
2013-01-15 09:33:00,26.0,19.0,30.39,NW,315,0.0,5.0,76,0.00,,,0.00,,2013-01-15 14:33:00,
2013-01-15 09:43:00,26.0,19.0,30.39,NW,315,0.0,5.0,76,0.00,,,0.00,,2013-01-15 14:43:00,
2013-01-15 09:54:00,26.0,19.0,30.40,NW,323,2.0,5.0,76,0.00,,,0.00,,2013-01-15 14:54:00,
2013-01-15 10:03:00,26.0,19.0,30.40,ENE,57,1.0,7.0,75,0.00,,,0.00,,2013-01-15 15:03:00,
2013-01-15 10:12:00,26.0,19.0,30.40,ENE,57,1.0,7.0,75,0.00,,,0.00,,2013-01-15 15:12:00,
2013-01-15 10:23:00,26.0,19.0,30.40,NE,40,1.0,7.0,75,0.00,,,0.00,,2013-01-15 15:23:00,
2013-01-15 10:33:00,27.0,20.0,30.40,NE,45,2.0,4.0,75,0.00,,,0.00,,2013-01-15 15:33:00,
2013-01-15 10:43:00,27.0,20.0,30.40,NE,45,2.0,4.0,75,0.00,,,0.00,,2013-01-15 15:43:00,
2013-01-15 10:53:00,27.0,20.0,30.40,NE,54,3.0,7.0,74,0.00,,,0.00,,2013-01-15 15:53:00,
2013-01-15 11:03:00,27.0,20.0,30.38,NE,35,2.0,4.0,74,0.00,,,0.00,,2013-01-15 16:03:00,
2013-01-15 11:12:00,27.0,20.0,30.38,NE,35,2.0,4.0,74,0.00,,,0.00,,2013-01-15 16:12:00,
2013-01-15 11:23:00,28.0,20.0,30.38,ENE,75,3.0,5.0,73,0.00,,,0.00,,2013-01-15 16:23:00,
2013-01-15 11:33:00,28.0,20.0,30.37,NNE,30,5.0,6.0,73,0.00,,,0.00,,2013-01-15 16:33:00,
2013-01-15 11:43:00,28.0,20.0,30.37,NNE,30,5.0,6.0,73,0.00,,,0.00,,2013-01-15 16:43:00,
2013-01-15 11:53:00,28.0,20.0,30.37,NE,54,5.0,6.0,72,0.00,,,0.00,,2013-01-15 16:53:00,
2013-01-15 12:03:00,28.0,20.0,30.35,East,84,3.0,5.0,70,0.00,,,0.00,,2013-01-15 17:03:00,
2013-01-15 12:12:00,28.0,20.0,30.35,East,84,3.0,5.0,70,0.00,,,0.00,,2013-01-15 17:12:00,
2013-01-15 12:23:00,30.0,21.0,30.35,NE,51,1.0,5.0,69,0.00,,,0.00,,2013-01-15 17:23:00,
2013-01-15 12:33:00,30.0,20.0,30.35,ENE,77,3.0,6.0,67,0.00,,,0.00,,2013-01-15 17:33:00,
2013-01-15 12:43:00,30.0,20.0,30.35,ENE,77,3.0,6.0,67,0.00,,,0.00,,2013-01-15 17:43:00,
2013-01-15 12:53:00,30.0,20.0,30.35,NW,318,1.0,6.0,67,0.00,,,0.00,,2013-01-15 17:53:00,
2013-01-15 13:03:00,30.0,20.0,30.35,ENE,71,2.0,3.0,67,0.00,,,0.00,,2013-01-15 18:03:00,
2013-01-15 13:13:00,30.0,20.0,30.35,ENE,71,2.0,3.0,67,0.00,,,0.00,,2013-01-15 18:13:00,
2013-01-15 13:23:00,30.0,21.0,30.34,NW,313,1.0,6.0,68,0.00,,,0.00,,2013-01-15 18:23:00,
2013-01-15 13:33:00,30.0,21.0,30.33,NW,320,3.0,4.0,70,0.00,,,0.00,,2013-01-15 18:33:00,
2013-01-15 13:43:00,30.0,21.0,30.33,NW,320,3.0,4.0,70,0.00,,,0.00,,2013-01-15 18:43:00,
2013-01-15 13:54:00,30.0,21.0,30.32,NNE,13,1.0,6.0,70,0.00,,,0.00,,2013-01-15 18:54:00,
2013-01-15 14:03:00,30.0,22.0,30.30,NNW,347,3.0,5.0,71,0.00,,,0.00,,2013-01-15 19:03:00,
2013-01-15 14:13:00,30.0,22.0,30.30,NNW,347,3.0,5.0,71,0.00,,,0.00,,2013-01-15 19:13:00,
2013-01-15 14:23:00,30.0,22.0,30.28,NNW,348,3.0,8.0,71,0.00,,,0.00,,2013-01-15 19:23:00,
2013-01-15 14:33:00,30.0,22.0,30.29,NNW,327,3.0,7.0,72,0.00,,,0.00,,2013-01-15 19:33:00,
2013-01-15 14:42:00,30.0,22.0,30.29,NNW,327,3.0,7.0,72,0.00,,,0.00,,2013-01-15 19:42:00,
2013-01-15 14:53:00,30.0,22.0,30.30,NE,36,3.0,7.0,73,0.00,,,0.00,,2013-01-15 19:53:00,
2013-01-15 15:03:00,30.0,22.0,30.30,NE,47,1.0,6.0,73,0.00,,,0.00,,2013-01-15 20:03:00,
2013-01-15 15:12:00,30.0,22.0,30.30,NE,47,1.0,6.0,73,0.00,,,0.00,,2013-01-15 20:12:00,
2013-01-15 15:23:00,30.0,22.0,30.31,ENE,59,3.0,7.0,73,0.00,,,0.00,,2013-01-15 20:23:00,
2013-01-15 15:33:00,29.0,21.0,30.30,NE,49,3.0,7.0,73,0.00,,,0.00,,2013-01-15 20:33:00,
2013-01-15 15:43:00,29.0,21.0,30.30,NE,49,3.0,7.0,73,0.00,,,0.00,,2013-01-15 20:43:00,
2013-01-15 15:53:00,30.0,23.0,30.29,NNE,24,1.0,7.0,74,0.00,,,0.00,,2013-01-15 20:53:00,
2013-01-15 16:03:00,30.0,23.0,30.28,NNE,19,3.0,7.0,74,0.00,,,0.00,,2013-01-15 21:03:00,
2013-01-15 16:13:00,30.0,23.0,30.28,NNE,19,3.0,7.0,74,0.00,,,0.00,,2013-01-15 21:13:00,
2013-01-15 16:23:00,29.0,22.0,30.27,NNE,30,2.0,9.0,76,0.00,,,0.00,,2013-01-15 21:23:00,
2013-01-15 16:33:00,29.0,22.0,30.29,NNE,13,2.0,7.0,76,0.00,,,0.00,,2013-01-15 21:33:00,
2013-01-15 16:43:00,29.0,22.0,30.29,NNE,13,2.0,7.0,76,0.00,,,0.00,,2013-01-15 21:43:00,
2013-01-15 16:53:00,29.0,22.0,30.29,WNW,301,3.0,7.0,76,0.00,,,0.00,,2013-01-15 21:53:00,
2013-01-15 17:03:00,29.0,22.0,30.29,NE,54,3.0,5.0,76,0.00,,,0.00,,2013-01-15 22:03:00,
2013-01-15 17:12:00,29.0,22.0,30.29,NE,54,3.0,5.0,76,0.00,,,0.00,,2013-01-15 22:12:00,
2013-01-15 17:23:00,28.0,21.0,30.28,ENE,78,1.0,6.0,76,0.00,,,0.00,,2013-01-15 22:23:00,
2013-01-15 17:33:00,28.0,21.0,30.28,NNE,15,3.0,4.0,76,0.00,,,0.00,,2013-01-15 22:33:00,
2013-01-15 17:43:00,28.0,21.0,30.28,NNE,15,3.0,4.0,76,0.00,,,0.00,,2013-01-15 22:43:00,
2013-01-15 17:53:00,28.0,21.0,30.29,NE,45,4.0,5.0,76,0.00,,,0.00,,2013-01-15 22:53:00,
2013-01-15 18:02:00,28.0,22.0,30.28,NE,56,3.0,4.0,77,0.00,,,0.00,,2013-01-15 23:02:00,
2013-01-15 18:13:00,28.0,22.0,30.28,NE,56,3.0,4.0,77,0.00,,,0.00,,2013-01-15 23:13:00,
2013-01-15 18:23:00,28.0,21.0,30.29,ENE,59,2.0,4.0,76,0.00,,,0.00,,2013-01-15 23:23:00,
2013-01-15 18:33:00,28.0,22.0,30.27,NE,51,4.0,6.0,77,0.00,,,0.00,,2013-01-15 23:33:00,
2013-01-15 18:43:00,28.0,22.0,30.27,NE,51,4.0,6.0,77,0.00,,,0.00,,2013-01-15 23:43:00,
2013-01-15 18:53:00,28.0,22.0,30.26,ENE,62,2.0,6.0,77,0.00,,,0.00,,2013-01-15 23:53:00,
2013-01-15 19:03:00,29.0,22.0,30.24,ENE,59,4.0,6.0,76,0.00,,,0.00,,2013-01-16 00:03:00,
2013-01-15 19:13:00,29.0,22.0,30.24,ENE,59,4.0,6.0,76,0.00,,,0.00,,2013-01-16 00:13:00,
2013-01-15 19:22:00,29.0,22.0,30.24,ENE,69,2.0,6.0,76,0.00,,,0.00,,2013-01-16 00:22:00,
2013-01-15 19:33:00,29.0,22.0,30.25,ENE,59,0.0,2.0,76,0.00,,,0.00,,2013-01-16 00:33:00,
2013-01-15 19:43:00,29.0,22.0,30.25,ENE,59,0.0,2.0,76,0.00,,,0.00,,2013-01-16 00:43:00,
2013-01-15 19:53:00,29.0,22.0,30.24,NE,51,2.0,3.0,76,0.00,,,0.00,,2013-01-16 00:53:00,
2013-01-15 20:03:00,29.0,22.0,30.24,East,87,2.0,4.0,76,0.00,,,0.00,,2013-01-16 01:03:00,
2013-01-15 20:12:00,29.0,22.0,30.24,East,87,2.0,4.0,76,0.00,,,0.00,,2013-01-16 01:12:00,
2013-01-15 20:22:00,29.0,22.0,30.22,East,86,1.0,4.0,76,0.00,,,0.00,,2013-01-16 01:22:00,
2013-01-15 20:33:00,29.0,22.0,30.22,ENE,65,2.0,3.0,76,0.00,,,0.00,,2013-01-16 01:33:00,
2013-01-15 20:43:00,29.0,22.0,30.22,ENE,65,2.0,3.0,76,0.00,,,0.00,,2013-01-16 01:43:00,
2013-01-15 20:53:00,29.0,23.0,30.22,ESE,106,1.0,4.0,77,0.00,,,0.00,,2013-01-16 01:53:00,
2013-01-15 21:03:00,29.0,23.0,30.21,ENE,62,2.0,4.0,77,0.00,,,0.00,,2013-01-16 02:03:00,
2013-01-15 21:12:00,29.0,23.0,30.21,ENE,62,2.0,4.0,77,0.00,,,0.00,,2013-01-16 02:12:00,
2013-01-15 21:22:00,29.0,23.0,30.20,NE,50,2.0,4.0,77,0.00,,,0.00,,2013-01-16 02:22:00,
2013-01-15 21:32:00,29.0,23.0,30.20,ENE,69,1.0,3.0,77,0.00,,,0.00,,2013-01-16 02:32:00,
2013-01-15 21:43:00,29.0,23.0,30.20,ENE,69,1.0,3.0,77,0.00,,,0.00,,2013-01-16 02:43:00,
2013-01-15 21:53:00,30.0,24.0,30.19,East,86,1.0,3.0,77,0.00,,,0.00,,2013-01-16 02:53:00,
2013-01-15 22:03:00,30.0,24.0,30.19,ENE,69,1.0,3.0,77,0.00,,,0.00,,2013-01-16 03:03:00,
2013-01-15 22:12:00,29.0,23.0,30.18,ENE,69,3.0,4.0,77,0.00,,,0.00,,2013-01-16 03:12:00,
2013-01-15 22:22:00,29.0,23.0,30.18,ENE,69,3.0,4.0,77,0.00,,,0.00,,2013-01-16 03:22:00,
2013-01-15 22:33:00,30.0,24.0,30.17,ENE,74,0.0,3.0,77,0.00,,,0.00,,2013-01-16 03:33:00,
2013-01-15 22:43:00,30.0,24.0,30.17,ENE,74,0.0,3.0,77,0.00,,,0.00,,2013-01-16 03:43:00,
2013-01-15 22:53:00,29.0,23.0,30.17,ENE,64,0.0,3.0,77,0.00,,,0.00,,2013-01-16 03:53:00,
2013-01-15 23:02:00,29.0,23.0,30.14,ENE,59,2.0,3.0,78,0.00,,,0.00,,2013-01-16 04:02:00,
2013-01-15 23:12:00,29.0,23.0,30.14,ENE,59,2.0,3.0,78,0.00,,,0.00,,2013-01-16 04:12:00,
2013-01-15 23:22:00,29.0,23.0,30.13,East,81,1.0,4.0,78,0.00,,,0.00,,2013-01-16 04:22:00,
2013-01-15 23:33:00,29.0,23.0,30.13,ENE,62,2.0,3.0,78,0.00,,,0.00,,2013-01-16 04:33:00,
2013-01-15 23:42:00,29.0,23.0,30.13,ENE,62,2.0,3.0,78,0.00,,,0.00,,2013-01-16 04:42:00,
2013-01-15 23:53:00,29.0,23.0,30.12,ENE,57,1.0,3.0,78,0.00,,,0.00,,2013-01-16 04:53:00,